Location: Munkebjergskolens Observatorium
(55.3864°N, 10.3987°E)
Time: 23:03:29
(UTC+01:00)

Envisat - Pass Details

Date: 06 December 2022
Orbit: 763 x 765 km, 98.2° (Epoch: 01 February)

Event Time Altitude Azimuth Distance (km) Brightness Sun altitude
Rises 06:44:23 0° 9° (N) 3,249 6.1 -13.6°
Reaches altitude 10° 06:47:21 10° 351° (N) 2,318 5.2 -13.2°
Maximum altitude 06:50:42 18° 310° (NW) 1,822 4.4 -12.7°
Enters shadow 06:51:22 18° 300° (WNW) 1,844 4.3 -12.7°
